K5UBE Weather Reports


time (UTC)temp
C
wind
direction
speed
KPH
gust
KPH
rain 1hr
cm
rain 24hr
cm
rain mn
cm
humidity
%
barometer
mb
20260507115424 3 307 1.6 4.8 0.00 0.00 0.00 88 1024.0
20260507114920 3 314 6.4 6.4 0.00 0.00 0.00 88 1023.9
20260507114417 3 340 4.8 6.4 0.00 0.00 0.00 88 1023.7
20260507113914 3 347 4.8 6.4 0.00 0.00 0.00 87 1023.6
20260507113411 3 309 6.4 9.7 0.00 0.00 0.00 87 1023.7
20260507112908 3 340 3.2 6.4 0.00 0.00 0.00 87 1023.6
20260507112406 3 346 3.2 4.8 0.00 0.00 0.00 86 1024.0
20260507111904 3 321 4.8 6.4 0.00 0.00 0.00 86 1023.7
20260507111359 3 331 1.6 6.4 0.00 0.00 0.00 86 1023.6
20260507110856 3 335 3.2 6.4 0.00 0.00 0.00 86 1023.5
20260507110352 3 335 3.2 4.8 0.00 0.00 0.00 86 1023.4
20260507105849 3 341 3.2 3.2 0.00 0.00 0.00 85 1023.7
20260507105346 3 24 1.6 3.2 0.00 0.00 0.00 85 1023.7
20260507104842 3 344 3.2 6.4 0.00 0.00 0.00 85 1023.7
20260507104339 3 326 0.0 3.2 0.00 0.00 0.00 84 1023.6
20260507103835 3 348 0.0 3.2 0.00 0.00 0.00 84 1023.7
20260507103332 3 337 1.6 3.2 0.00 0.00 0.00 83 1023.9
20260507102828 3 322 3.2 3.2 0.00 0.00 0.00 83 1023.6
20260507102326 3 14 3.2 4.8 0.00 0.00 0.00 83 1023.7
20260507101822 4 8 4.8 4.8 0.00 0.00 0.00 82 1023.9
20260507101321 4 334 3.2 4.8 0.00 0.00 0.00 82 1024.0
20260507100819 4 340 0.0 3.2 0.00 0.00 0.00 82 1023.7
20260507100317 4 340 3.2 4.8 0.00 0.00 0.00 81 1023.9
20260507095815 4 357 1.6 4.8 0.00 0.00 0.00 80 1023.6
20260507095311 4 354 1.6 6.4 0.00 0.00 0.00 79 1023.9
20260507094808 4 355 0.0 1.6 0.00 0.00 0.00 78 1023.9
20260507094305 5 339 4.8 4.8 0.00 0.00 0.00 77 1023.9
20260507093802 5 353 0.0 1.6 0.00 0.00 0.00 76 1023.9
20260507093300 5 6 3.2 4.8 0.00 0.00 0.00 76 1023.6
20260507092758 5 343 1.6 3.2 0.00 0.00 0.00 76 1023.7
20260507092254 5 331 1.6 3.2 0.00 0.00 0.00 76 1024.0
20260507091750 5 7 3.2 3.2 0.00 0.00 0.00 76 1023.7
20260507091247 5 355 3.2 4.8 0.00 0.00 0.00 76 1023.7
20260507090747 5 356 1.6 4.8 0.00 0.00 0.00 76 1023.6
20260507090244 5 21 1.6 4.8 0.00 0.00 0.00 75 1023.4
20260507085741 5 51 1.6 4.8 0.00 0.00 0.00 75 1023.4
20260507085238 5 18 1.6 6.4 0.00 0.00 0.00 74 1023.4
20260507084735 5 30 1.6 6.4 0.00 0.00 0.00 74 1023.4
20260507084232 5 30 1.6 3.2 0.00 0.00 0.00 74 1023.4
20260507083730 5 7 1.6 3.2 0.00 0.00 0.00 75 1023.6
20260507083226 5 54 4.8 9.7 0.00 0.00 0.00 75 1023.3
20260507082722 5 60 3.2 6.4 0.00 0.00 0.00 74 1023.3
20260507082218 5 81 8.0 12.9 0.00 0.00 0.00 74 1023.2
20260507081715 6 94 3.2 11.3 0.00 0.00 0.00 74 1022.8
20260507081211 6 77 6.4 11.3 0.00 0.00 0.00 74 1022.7
20260507080708 6 88 8.0 14.5 0.00 0.00 0.00 74 1022.7
20260507080204 6 94 14.5 16.1 0.00 0.00 0.00 74 1022.8
20260507075659 6 97 9.7 17.7 0.00 0.00 0.00 75 1022.7
20260507075156 6 80 11.3 14.5 0.00 0.00 0.00 74 1022.7
20260507074652 6 79 16.1 20.9 0.00 0.00 0.00 74 1023.0
20260507074150 6 67 12.9 14.5 0.00 0.00 0.00 73 1023.5
20260507073647 6 80 8.0 12.9 0.00 0.00 0.00 74 1023.5
20260507073143 6 95 8.0 16.1 0.00 0.00 0.00 73 1024.2
20260507072641 6 47 9.7 14.5 0.00 0.00 0.00 73 1024.2
20260507072138 6 66 12.9 17.7 0.00 0.00 0.00 72 1024.2
20260507071636 6 50 6.4 17.7 0.00 0.00 0.00 72 1024.5
20260507071132 6 39 11.3 16.1 0.00 0.00 0.00 71 1024.3
20260507070629 6 27 11.3 20.9 0.00 0.00 0.00 71 1024.3
20260507070126 7 71 6.4 20.9 0.00 0.00 0.00 71 1024.3
20260507065622 7 60 11.3 22.5 0.00 0.00 0.00 71 1024.2
20260507065119 7 10 6.4 17.7 0.00 0.00 0.00 70 1024.2
20260507064616 7 57 8.0 12.9 0.00 0.00 0.00 70 1024.2
20260507064115 7 37 17.7 25.7 0.00 0.00 0.00 70 1024.3
20260507063612 7 65 11.3 29.0 0.00 0.00 0.00 69 1024.1
20260507063109 7 20 9.7 24.1 0.00 0.00 0.00 69 1024.5
20260507062606 7 57 12.9 16.1 0.00 0.00 0.00 68 1024.4
20260507062103 7 9 4.8 22.5 0.00 0.00 0.00 68 1024.3
20260507061601 7 60 6.4 12.9 0.00 0.00 0.00 69 1024.5
20260507061059 7 336 8.0 14.5 0.00 0.00 0.00 68 1024.3
20260507060557 7 321 4.8 20.9 0.00 0.00 0.00 68 1024.1
20260507060054 7 49 12.9 20.9 0.00 0.00 0.00 69 1024.1
20260507055554 7 46 6.4 22.5 0.00 0.00 0.00 69 1024.0
20260507055051 7 64 17.7 27.4 0.00 0.00 0.00 70 1023.7
20260507054546 7 37 16.1 24.1 0.00 0.00 0.00 70 1023.6
20260507054044 7 46 11.3 27.4 0.00 0.00 0.00 70 1023.4
20260507053542 7 34 17.7 35.4 0.00 0.00 0.00 69 1023.5
20260507053040 7 50 22.5 29.0 0.00 0.00 0.00 69 1023.5
20260507052537 7 54 9.7 22.5 0.00 0.00 0.00 67 1023.5
20260507052034 8 30 6.4 17.7 0.00 0.00 0.00 66 1023.7
20260507051532 8 25 14.5 20.9 0.00 0.00 0.00 65 1023.9
20260507051028 8 351 8.0 16.1 0.00 0.00 0.00 65 1024.0
20260507050525 8 32 6.4 20.9 0.00 0.00 0.00 65 1023.6
20260507050021 8 31 9.7 22.5 0.00 0.00 0.00 65 1023.6
20260507045518 8 43 14.5 24.1 0.00 0.00 0.00 66 1023.4
20260507045016 8 68 12.9 30.6 0.00 0.00 0.00 66 1023.4
20260507044512 8 57 8.0 27.4 0.00 0.00 0.00 66 1023.4
20260507044009 8 22 4.8 22.5 0.00 0.00 0.00 65 1023.1
20260507043505 8 43 24.1 33.8 0.00 0.00 0.00 64 1022.7
20260507043001 8 48 20.9 33.8 0.00 0.00 0.00 64 1022.8
20260507042458 8 50 32.2 38.6 0.00 0.00 0.00 64 1022.5
20260507041954 8 20 16.1 37.0 0.00 0.00 0.00 64 1022.2
20260507041451 8 53 22.5 38.6 0.00 0.00 0.00 64 1022.5
20260507040948 9 47 19.3 33.8 0.00 0.00 0.00 64 1022.3
20260507040443 10 60 12.9 37.0 0.00 0.00 0.00 64 1022.0
20260507035939 10 58 14.5 38.6 0.00 0.00 0.00 63 1021.8
20260507035436 10 10 22.5 33.8 0.00 0.00 0.00 61 1021.7
20260507034933 10 68 11.3 27.4 0.00 0.00 0.00 60 1021.7
20260507034430 10 61 19.3 35.4 0.00 0.00 0.00 60 1021.6
20260507033928 10 76 24.1 33.8 0.00 0.00 0.00 59 1021.5
20260507033425 10 70 24.1 35.4 0.00 0.00 0.00 58 1021.6
20260507032922 11 46 29.0 41.8 0.00 0.00 0.00 58 1021.4
20260507032419 11 30 19.3 37.0 0.00 0.00 0.00 56 1021.3
20260507031915 11 39 14.5 38.6 0.00 0.00 0.00 54 1021.1
20260507031412 12 22 27.4 35.4 0.00 0.00 0.00 51 1021.0
20260507030909 13 38 24.1 30.6 0.00 0.00 0.00 49 1020.9
20260507030406 13 63 24.1 38.6 0.00 0.00 0.00 49 1020.9
20260507025903 13 68 20.9 41.8 0.00 0.00 0.00 49 1021.0
20260507025401 13 30 22.5 37.0 0.00 0.00 0.00 47 1020.7
20260507024858 13 63 37.0 53.1 0.00 0.00 0.00 47 1020.6
20260507024355 13 49 16.1 37.0 0.00 0.00 0.00 47 1020.4
20260507023851 14 32 27.4 41.8 0.00 0.00 0.00 47 1020.2
20260507023348 14 46 22.5 48.3 0.00 0.00 0.00 46 1020.1
20260507022845 15 63 32.2 46.7 0.00 0.00 0.00 44 1019.3
20260507022342 16 64 16.1 35.4 0.00 0.00 0.00 42 1019.0
20260507021837 16 56 25.7 35.4 0.00 0.00 0.00 42 1018.7
20260507021333 16 65 20.9 43.5 0.00 0.00 0.00 41 1018.1
20260507020831 18 39 17.7 24.1 0.00 0.00 0.00 35 1017.2
20260507020327 18 96 17.7 22.5 0.00 0.00 0.00 35 1017.0
20260507015824 18 91 14.5 24.1 0.00 0.00 0.00 34 1016.3
20260507015323 19 100 12.9 20.9 0.00 0.00 0.00 33 1016.2
20260507014819 19 114 9.7 14.5 0.00 0.00 0.00 33 1015.9
20260507014316 21 236 1.6 4.8 0.00 0.00 0.00 25 1015.6
20260507013812 21 205 1.6 6.4 0.00 0.00 0.00 19 1015.7
20260507013309 21 205 3.2 4.8 0.00 0.00 0.00 19 1015.5
20260507012807 21 252 0.0 4.8 0.00 0.00 0.00 19 1015.4
20260507012306 21 278 3.2 11.3 0.00 0.00 0.00 19 1015.3
20260507011800 22 281 1.6 6.4 0.00 0.00 0.00 19 1015.0
20260507011256 22 259 3.2 9.7 0.00 0.00 0.00 19 1015.3
20260507010756 22 226 1.6 11.3 0.00 0.00 0.00 18 1014.9
20260507010252 22 251 3.2 6.4 0.00 0.00 0.00 18 1014.7
20260507005750 22 198 3.2 11.3 0.00 0.00 0.00 19 1014.7
20260507005246 22 175 6.4 11.3 0.00 0.00 0.00 19 1014.6
20260507004742 22 208 3.2 6.4 0.00 0.00 0.00 18 1014.5
20260507004240 22 234 3.2 9.7 0.00 0.00 0.00 18 1014.7
20260507003736 22 212 4.8 11.3 0.00 0.00 0.00 18 1014.5
20260507003232 22 161 4.8 12.9 0.00 0.00 0.00 17 1014.5
20260507002728 23 182 11.3 14.5 0.00 0.00 0.00 16 1014.4
20260507002224 23 251 3.2 12.9 0.00 0.00 0.00 17 1014.5
20260507001721 22 206 3.2 11.3 0.00 0.00 0.00 19 1014.4
20260507001218 23 206 6.4 14.5 0.00 0.00 0.00 18 1014.2
20260507000714 23 252 3.2 16.1 0.00 0.00 0.00 17 1014.1
20260507000212 24 244 6.4 20.9 0.00 0.00 0.00 16 1014.0
20260506235708 22 171 3.2 11.3 0.00 0.00 0.00 18 1014.4
20260506235203 22 211 3.2 11.3 0.00 0.00 0.00 19 1014.1
20260506234700 22 249 9.7 14.5 0.00 0.00 0.00 18 1014.1
20260506234157 23 227 6.4 17.7 0.00 0.00 0.00 16 1013.9
20260506233654 24 225 3.2 11.3 0.00 0.00 0.00 16 1014.0
20260506233151 24 247 8.0 11.3 0.00 0.00 0.00 15 1014.2
20260506232647 23 253 3.2 12.9 0.00 0.00 0.00 16 1014.2
20260506232143 23 251 16.1 25.7 0.00 0.00 0.00 14 1014.1
20260506231640 24 285 16.1 27.4 0.00 0.00 0.00 13 1013.9
20260506231139 25 315 16.1 27.4 0.00 0.00 0.00 13 1014.1
20260506230635 24 186 8.0 9.7 0.00 0.00 0.00 13 1013.9
20260506230132 25 250 8.0 20.9 0.00 0.00 0.00 13 1013.8
20260506225628 25 255 6.4 14.5 0.00 0.00 0.00 13 1014.0
20260506225125 24 279 6.4 12.9 0.00 0.00 0.00 14 1014.0
20260506224622 23 286 8.0 17.7 0.00 0.00 0.00 14 1014.0
20260506224118 25 226 9.7 16.1 0.00 0.00 0.00 14 1014.1
20260506223614 25 243 6.4 22.5 0.00 0.00 0.00 13 1014.0
20260506223110 25 264 6.4 14.5 0.00 0.00 0.00 13 1014.0
20260506222608 25 105 3.2 9.7 0.00 0.00 0.00 13 1014.0
20260506222104 25 158 4.8 12.9 0.00 0.00 0.00 14 1014.1
20260506221602 23 257 4.8 12.9 0.00 0.00 0.00 14 1014.1
20260506221100 24 288 0.0 11.3 0.00 0.00 0.00 15 1014.2
20260506220555 25 254 9.7 16.1 0.00 0.00 0.00 13 1014.2
20260506220051 24 319 0.0 6.4 0.00 0.00 0.00 16 1014.2
20260506215548 24 271 3.2 20.9 0.00 0.00 0.00 18 1014.1
20260506215044 23 212 6.4 16.1 0.00 0.00 0.00 17 1014.1
20260506214541 23 112 6.4 14.5 0.00 0.00 0.00 19 1014.6
20260506214038 22 186 4.8 16.1 0.00 0.00 0.00 20 1014.8
20260506213536 23 216 6.4 14.5 0.00 0.00 0.00 20 1014.8
20260506213033 23 224 4.8 12.9 0.00 0.00 0.00 19 1014.8
20260506212530 22 271 6.4 17.7 0.00 0.00 0.00 20 1015.0
20260506212024 22 272 9.7 12.9 0.00 0.00 0.00 20 1014.9
20260506211521 24 222 9.7 17.7 0.00 0.00 0.00 20 1015.0
20260506211018 23 247 4.8 16.1 0.00 0.00 0.00 20 1015.0
20260506210515 23 227 3.2 14.5 0.00 0.00 0.00 20 1015.2
20260506210011 23 249 3.2 12.9 0.00 0.00 0.00 20 1015.3
20260506205508 23 258 3.2 20.9 0.00 0.00 0.00 20 1015.3
20260506205003 24 230 9.7 16.1 0.00 0.00 0.00 19 1015.4
20260506204501 24 228 6.4 14.5 0.00 0.00 0.00 20 1015.4
20260506203958 23 217 8.0 11.3 0.00 0.00 0.00 20 1015.3
20260506203456 23 134 3.2 11.3 0.00 0.00 0.00 21 1015.0
20260506202952 22 238 6.4 17.7 0.00 0.00 0.00 21 1015.5
20260506202450 22 315 9.7 16.1 0.00 0.00 0.00 21 1015.4
20260506201946 22 220 9.7 17.7 0.00 0.00 0.00 21 1015.4
20260506201444 22 297 4.8 12.9 0.00 0.00 0.00 21 1015.5
20260506200940 23 201 6.4 17.7 0.00 0.00 0.00 20 1015.7
20260506200437 23 254 4.8 20.9 0.00 0.00 0.00 19 1015.4
20260506195933 23 48 3.2 11.3 0.00 0.00 0.00 20 1015.7
20260506195430 22 281 3.2 24.1 0.00 0.00 0.00 21 1015.7
20260506194927 24 217 11.3 16.1 0.00 0.00 0.00 19 1015.6
20260506194424 22 264 3.2 14.5 0.00 0.00 0.00 20 1015.6
20260506193921 21 243 6.4 11.3 0.00 0.00 0.00 25 1015.7
20260506193418 21 259 4.8 9.7 0.00 0.00 0.00 27 1015.8
20260506192914 22 216 11.3 14.5 0.00 0.00 0.00 26 1015.9
20260506192411 22 231 6.4 16.1 0.00 0.00 0.00 26 1015.8
20260506191908 22 248 6.4 11.3 0.00 0.00 0.00 27 1016.1
20260506191405 21 306 3.2 11.3 0.00 0.00 0.00 27 1016.2
20260506190902 21 223 6.4 16.1 0.00 0.00 0.00 27 1016.4
20260506190358 21 261 11.3 12.9 0.00 0.00 0.00 26 1016.4
20260506185855 21 245 9.7 16.1 0.00 0.00 0.00 26 1016.4
20260506185352 21 249 8.0 11.3 0.00 0.00 0.00 25 1016.3
20260506184849 21 230 6.4 17.7 0.00 0.00 0.00 25 1016.5
20260506184346 20 216 8.0 11.3 0.00 0.00 0.00 28 1016.6
20260506183843 21 144 9.7 11.3 0.00 0.00 0.00 28 1016.6
20260506183338 21 225 8.0 16.1 0.00 0.00 0.00 26 1016.8
20260506182836 20 314 1.6 11.3 0.00 0.00 0.00 29 1016.8
20260506182333 20 242 4.8 11.3 0.00 0.00 0.00 30 1017.0
20260506181831 21 277 4.8 12.9 0.00 0.00 0.00 30 1017.0
20260506181328 21 282 9.7 25.7 0.00 0.00 0.00 29 1017.1
20260506180825 20 314 4.8 17.7 0.00 0.00 0.00 30 1017.3
20260506180321 19 87 1.6 9.7 0.00 0.00 0.00 32 1017.4
20260506175817 17 88 3.2 6.4 0.00 0.00 0.00 34 1017.3
20260506175315 18 146 4.8 9.7 0.00 0.00 0.00 32 1017.3
20260506174812 19 227 6.4 14.5 0.00 0.00 0.00 32 1017.5
20260506174309 20 345 4.8 16.1 0.00 0.00 0.00 33 1017.6
20260506173807 19 298 8.0 14.5 0.00 0.00 0.00 32 1017.6
20260506173303 18 166 1.6 9.7 0.00 0.00 0.00 34 1017.6
20260506172800 17 125 1.6 6.4 0.00 0.00 0.00 36 1018.1
20260506172257 17 70 3.2 6.4 0.00 0.00 0.00 39 1017.9
20260506171754 17 309 9.7 11.3 0.00 0.00 0.00 40 1017.9
20260506171251 16 219 4.8 6.4 0.00 0.00 0.00 42 1018.0
20260506170749 17 329 4.8 6.4 0.00 0.00 0.00 41 1018.0
20260506170245 16 263 4.8 11.3 0.00 0.00 0.00 41 1018.2
20260506165744 16 354 0.0 3.2 0.00 0.00 0.00 44 1018.0
20260506165241 15 150 3.2 4.8 0.00 0.00 0.00 47 1018.2
20260506164738 15 112 6.4 9.7 0.00 0.00 0.00 48 1018.1
20260506164234 14 116 6.4 9.7 0.00 0.00 0.00 51 1018.0
20260506163731 13 288 3.2 9.7 0.00 0.00 0.00 52 1018.1
20260506163226 13 89 0.0 6.4 0.00 0.00 0.00 55 1018.0
20260506162722 12 130 6.4 11.3 0.00 0.00 0.00 57 1018.1
20260506162220 13 140 3.2 9.7 0.00 0.00 0.00 56 1018.1
20260506161717 12 144 6.4 14.5 0.00 0.00 0.00 59 1018.1
20260506161215 12 204 6.4 14.5 0.00 0.00 0.00 61 1018.0
20260506160712 12 101 6.4 11.3 0.00 0.00 0.00 61 1018.0
20260506160208 11 136 6.4 6.4 0.00 0.00 0.00 60 1018.0
20260506155707 11 172 6.4 12.9 0.00 0.00 0.00 63 1017.8
20260506155204 11 172 8.0 12.9 0.00 0.00 0.00 63 1017.9
20260506153306 11 133 6.4 11.3 0.00 0.00 0.00 66 1017.8
20260506152802 10 126 8.0 9.7 0.00 0.00 0.00 67 1017.9
20260506152300 10 152 4.8 6.4 0.00 0.00 0.00 68 1018.0
20260506151759 10 242 3.2 11.3 0.00 0.00 0.00 70 1018.1
20260506151255 10 200 6.4 9.7 0.00 0.00 0.00 68 1018.0
20260506150751 9 169 4.8 9.7 0.00 0.00 0.00 71 1018.1
20260506150249 8 61 3.2 6.4 0.00 0.00 0.00 73 1018.1
20260506145745 9 128 6.4 9.7 0.00 0.00 0.00 71 1018.1
20260506145242 8 99 12.9 14.5 0.00 0.00 0.00 74 1018.2
20260506144739 8 123 4.8 11.3 0.00 0.00 0.00 74 1018.2
20260506144236 8 85 8.0 11.3 0.00 0.00 0.00 75 1018.1
20260506143734 8 108 8.0 11.3 0.00 0.00 0.00 76 1018.0
20260506143231 8 137 1.6 6.4 0.00 0.00 0.00 76 1018.1
20260506142730 7 89 6.4 12.9 0.00 0.00 0.00 78 1018.0
20260506142227 7 171 4.8 12.9 0.00 0.00 0.00 79 1018.0
20260506141725 7 122 8.0 14.5 0.00 0.00 0.00 79 1018.0
20260506141223 7 131 4.8 11.3 0.00 0.00 0.00 79 1017.9
20260506140721 6 94 9.7 14.5 0.00 0.00 0.00 80 1018.1
20260506140217 6 102 4.8 12.9 0.00 0.00 0.00 82 1018.2
20260506135714 6 108 6.4 11.3 0.00 0.00 0.00 82 1018.1
20260506135210 6 101 4.8 14.5 0.00 0.00 0.00 82 1018.3
20260506134707 6 117 6.4 11.3 0.00 0.00 0.00 83 1018.1
20260506134203 6 124 4.8 11.3 0.00 0.00 0.00 83 1018.0
20260506133701 6 145 4.8 6.4 0.00 0.00 0.00 83 1018.3
20260506133157 6 92 9.7 17.7 0.00 0.00 0.00 84 1017.9
20260506132655 6 110 8.0 12.9 0.00 0.00 0.00 84 1017.9
20260506132151 5 111 6.4 12.9 0.00 0.00 0.00 85 1017.8
20260506131649 5 116 8.0 16.1 0.00 0.00 0.00 86 1017.5
20260506131145 5 88 9.7 14.5 0.00 0.00 0.00 85 1017.5
20260506130642 5 149 6.4 14.5 0.00 0.00 0.00 85 1017.4
20260506130139 5 110 6.4 16.1 0.00 0.00 0.00 86 1017.6
20260506125637 5 125 9.7 17.7 0.00 0.00 0.00 86 1017.6
20260506125135 5 88 14.5 17.7 0.00 0.00 0.00 86 1017.3
20260506124633 5 121 11.3 20.9 0.00 0.00 0.00 85 1017.4
20260506124130 5 92 9.7 14.5 0.00 0.00 0.00 85 1017.5
20260506123628 5 88 8.0 11.3 0.00 0.00 0.00 85 1017.3
20260506123126 5 95 14.5 17.7 0.00 0.00 0.00 85 1017.4
20260506122622 5 116 9.7 14.5 0.00 0.00 0.00 86 1017.3
20260506122120 5 78 11.3 14.5 0.00 0.00 0.00 86 1017.4
20260506121618 5 71 6.4 14.5 0.00 0.00 0.00 86 1017.3
20260506121114 5 94 8.0 11.3 0.00 0.00 0.00 85 1017.4
20260506120612 5 74 6.4 12.9 0.00 0.00 0.00 85 1017.4
20260506120109 5 89 9.7 12.9 0.00 0.00 0.00 85 1017.3